| time (UTC) | temp F | wind direction | speed MPH | gust MPH | rain 1hr in | rain 24hr in | rain mn in | humidity % | barometer mb |
| 20260903093503 | 0 | 58 | 0.0 | 1.0 | 0.00 | 0.00 | 0.00 | 1017.3 | |
| 20260903093004 | 0 | 14 | 0.0 | 1.0 | 0.00 | 0.00 | 0.00 | 1017.2 | |
| 20260903092559 | 0 | 105 | 0.0 | 1.0 | 0.00 | 0.00 | 0.00 | 1017.2 | |
| 20260903092058 | 0 | 105 | 0.0 | 1.0 | 0.00 | 0.00 | 0.00 | 1017.1 | |
| 20260903091556 | 0 | 119 | 0.0 | 1.0 | 0.00 | 0.00 | 0.00 | 1017.0 | |
| 20260903091055 | 0 | 121 | 0.0 | 1.0 | 0.00 | 0.00 | 0.00 | 1017.0 | |
| 20260903090554 | 0 | 121 | 0.0 | 0.0 | 0.00 | 0.00 | 0.00 | 1017.0 | |
| 20260903085551 | 0 | 121 | 0.0 | 2.0 | 0.00 | 0.00 | 0.00 | 1016.8 | |
| 20260903085050 | 0 | 112 | 0.0 | 0.0 | 0.00 | 0.00 | 0.00 | 1016.9 | |
| 20260903084549 | 0 | 112 | 0.0 | 0.0 | 0.00 | 0.00 | 0.00 | 1016.9 | |
| 20260903084045 | 0 | 112 | 0.0 | 1.0 | 0.00 | 0.00 | 0.00 | 1016.9 | |
| 20260903083544 | 0 | 112 | 0.0 | 1.0 | 0.00 | 0.00 | 0.00 | 1016.9 | |
| 20260903083056 | 0 | 115 | 0.0 | 1.0 | 0.00 | 0.00 | 0.00 | 1016.7 | |
| 20260903082541 | 0 | 112 | 0.0 | 1.0 | 0.00 | 0.00 | 0.00 | 1016.8 | |
| 20260903082040 | 0 | 103 | 0.0 | 1.0 | 0.00 | 0.00 | 0.00 | 1016.9 | |
| 20260903081539 | 0 | 117 | 0.0 | 0.0 | 0.00 | 0.00 | 0.00 | 1016.8 | |
| 20260903081036 | 0 | 117 | 0.0 | 0.0 | 0.00 | 0.00 | 0.00 | 1016.9 | |
| 20260903080538 | 0 | 117 | 0.0 | 1.0 | 0.00 | 0.00 | 0.00 | 1016.9 | |
| 20260903080035 | 0 | 111 | 0.0 | 1.0 | 0.00 | 0.00 | 0.00 | 1017.0 | |
| 20260903075533 | 0 | 20 | 0.0 | 1.0 | 0.00 | 0.00 | 0.00 | 1016.9 | |
| 20260903075031 | 0 | 89 | 0.0 | 1.0 | 0.00 | 0.00 | 0.00 | 1017.0 | |
| 20260903074529 | 0 | 129 | 0.0 | 0.0 | 0.00 | 0.00 | 0.00 | 1017.1 | |
| 20260903074028 | 0 | 129 | 0.0 | 0.0 | 0.00 | 0.00 | 0.00 | 1017.1 | |
| 20260903073527 | 0 | 129 | 0.0 | 2.0 | 0.00 | 0.00 | 0.00 | 1017.0 | |
| 20260903073024 | 0 | 129 | 1.0 | 2.0 | 0.00 | 0.00 | 0.00 | 1017.1 | |
| 20260903072523 | 0 | 130 | 0.0 | 2.0 | 0.00 | 0.00 | 0.00 | 1017.1 | |
| 20260903072025 | 0 | 116 | 0.0 | 1.0 | 0.00 | 0.00 | 0.00 | 1017.0 | |
| 20260903071521 | 0 | 105 | 0.0 | 0.0 | 0.00 | 0.00 | 0.00 | 1017.2 | |
| 20260903071019 | 0 | 105 | 0.0 | 0.0 | 0.00 | 0.00 | 0.00 | 1017.2 | |
| 20260903070517 | 0 | 105 | 0.0 | 1.0 | 0.00 | 0.00 | 0.00 | 1017.2 | |
| 20260903070020 | 0 | 105 | 0.0 | 1.0 | 0.00 | 0.00 | 0.00 | 1017.3 | |
| 20260903065515 | 0 | 112 | 0.0 | 1.0 | 0.00 | 0.00 | 0.00 | 1017.3 | |
| 20260903065012 | 0 | 103 | 0.0 | 1.0 | 0.00 | 0.00 | 0.00 | 1017.2 | |
| 20260903064511 | 0 | 111 | 0.0 | 1.0 | 0.00 | 0.00 | 0.00 | 1017.2 | |
| 20260903064010 | 0 | 139 | 0.0 | 0.0 | 0.00 | 0.00 | 0.00 | 1017.2 | |
| 20260903063508 | 0 | 139 | 0.0 | 0.0 | 0.00 | 0.00 | 0.00 | 1017.2 | |
| 20260903063006 | 0 | 139 | 0.0 | 1.0 | 0.00 | 0.00 | 0.00 | 1017.2 | |
| 20260903062505 | 0 | 129 | 0.0 | 1.0 | 0.00 | 0.00 | 0.00 | 1017.3 | |
| 20260903062005 | 0 | 142 | 0.0 | 1.0 | 0.00 | 0.00 | 0.00 | 1017.3 | |
| 20260903061503 | 0 | 112 | 0.0 | 1.0 | 0.00 | 0.00 | 0.00 | 1017.3 | |
| 20260903061000 | 0 | 121 | 0.0 | 0.0 | 0.00 | 0.00 | 0.00 | 1017.3 | |
| 20260903060600 | 0 | 121 | 0.0 | 0.0 | 0.00 | 0.00 | 0.00 | 1017.2 | |
| 20260903060134 | 0 | 121 | 0.0 | 2.0 | 0.00 | 0.00 | 0.00 | 1017.4 | |
| 20260903055556 | 0 | 121 | 0.0 | 2.0 | 0.00 | 0.00 | 0.00 | 1017.5 | |
| 20260903055056 | 0 | 123 | 0.0 | 2.0 | 0.00 | 0.00 | 0.00 | 1017.6 | |
| 20260903054554 | 0 | 126 | 1.0 | 2.0 | 0.00 | 0.00 | 0.00 | 1017.6 | |
| 20260903054054 | 0 | 144 | 0.0 | 1.0 | 0.00 | 0.00 | 0.00 | 1017.6 | |
| 20260903053553 | 0 | 113 | 0.0 | 1.0 | 0.00 | 0.00 | 0.00 | 1017.6 | |
| 20260903053050 | 0 | 113 | 0.0 | 1.0 | 0.00 | 0.00 | 0.00 | 1017.8 | |
| 20260903052551 | 0 | 111 | 0.0 | 1.0 | 0.00 | 0.00 | 0.00 | 1017.7 | |
| 20260903052051 | 0 | 103 | 0.0 | 1.0 | 0.00 | 0.00 | 0.00 | 1017.7 | |
| 20260903051552 | 0 | 61 | 0.0 | 1.0 | 0.00 | 0.00 | 0.00 | 1017.8 | |
| 20260903051045 | 0 | 108 | 0.0 | 0.0 | 0.00 | 0.00 | 0.00 | 1017.7 | |
| 20260903050543 | 0 | 108 | 0.0 | 0.0 | 0.00 | 0.00 | 0.00 | 1017.8 | |
| 20260903050042 | 0 | 108 | 0.0 | 1.0 | 0.00 | 0.00 | 0.00 | 1017.8 | |
| 20260903045540 | 0 | 95 | 0.0 | 1.0 | 0.00 | 0.00 | 0.00 | 1017.6 | |
| 20260903045038 | 0 | 107 | 0.0 | 1.0 | 0.00 | 0.00 | 0.00 | 1017.7 | |
| 20260903044540 | 0 | 116 | 0.0 | 1.0 | 0.00 | 0.00 | 0.00 | 1017.6 | |
| 20260903044036 | 0 | 126 | 0.0 | 0.0 | 0.00 | 0.00 | 0.00 | 1017.6 | |
| 20260903043534 | 0 | 126 | 0.0 | 1.0 | 0.00 | 0.00 | 0.00 | 1017.5 | |
| 20260903043032 | 0 | 126 | 0.0 | 1.0 | 0.00 | 0.00 | 0.00 | 1017.6 | |
| 20260903042531 | 0 | 126 | 0.0 | 1.0 | 0.00 | 0.00 | 0.00 | 1017.4 | |
| 20260903042030 | 0 | 126 | 0.0 | 1.0 | 0.00 | 0.00 | 0.00 | 1017.3 | |
| 20260903041528 | 0 | 126 | 0.0 | 1.0 | 0.00 | 0.00 | 0.00 | 1017.3 | |
| 20260903041027 | 0 | 130 | 0.0 | 1.0 | 0.00 | 0.00 | 0.00 | 1017.2 | |
| 20260903040525 | 0 | 136 | 0.0 | 1.0 | 0.00 | 0.00 | 0.00 | 1017.4 | |
| 20260903040037 | 0 | 136 | 0.0 | 1.0 | 0.00 | 0.00 | 0.00 | 1017.3 | |
| 20260903035523 | 0 | 136 | 0.0 | 1.0 | 0.00 | 0.00 | 0.00 | 1017.3 | |
| 20260903035024 | 0 | 136 | 0.0 | 1.0 | 0.00 | 0.00 | 0.00 | 1017.4 | |
| 20260903034523 | 0 | 138 | 0.0 | 1.0 | 0.00 | 0.00 | 0.00 | 1017.2 | |
| 20260903034022 | 0 | 138 | 0.0 | 1.0 | 0.00 | 0.00 | 0.00 | 1017.2 | |
| 20260903033523 | 0 | 138 | 0.0 | 1.0 | 0.00 | 0.00 | 0.00 | 1017.2 | |
| 20260903033023 | 0 | 138 | 0.0 | 1.0 | 0.00 | 0.00 | 0.00 | 1017.2 | |
| 20260903032524 | 0 | 138 | 0.0 | 1.0 | 0.00 | 0.00 | 0.00 | 1017.2 | |
| 20260903032022 | 0 | 138 | 0.0 | 1.0 | 0.00 | 0.00 | 0.00 | 1017.3 | |
| 20260903031531 | 0 | 138 | 0.0 | 1.0 | 0.00 | 0.00 | 0.00 | 1017.3 | |
| 20260903031022 | 0 | 142 | 0.0 | 1.0 | 0.00 | 0.00 | 0.00 | 1017.2 | |
| 20260903030522 | 0 | 138 | 0.0 | 1.0 | 0.00 | 0.00 | 0.00 | 1017.2 | |
| 20260903030022 | 0 | 138 | 0.0 | 1.0 | 0.00 | 0.00 | 0.00 | 1017.3 | |
| 20260903025521 | 0 | 138 | 0.0 | 1.0 | 0.00 | 0.00 | 0.00 | 1017.4 | |
| 20260903025022 | 0 | 138 | 0.0 | 1.0 | 0.00 | 0.00 | 0.00 | 1017.2 | |
| 20260903024521 | 0 | 138 | 0.0 | 1.0 | 0.00 | 0.00 | 0.00 | 1017.5 | |
| 20260903024020 | 0 | 138 | 0.0 | 1.0 | 0.00 | 0.00 | 0.00 | 1017.6 | |
| 20260903023520 | 0 | 140 | 0.0 | 1.0 | 0.00 | 0.00 | 0.00 | 1017.6 | |
| 20260903023024 | 0 | 136 | 0.0 | 1.0 | 0.00 | 0.00 | 0.00 | 1017.6 | |
| 20260903022521 | 0 | 123 | 0.0 | 1.0 | 0.00 | 0.00 | 0.00 | 1017.6 | |
| 20260903022020 | 0 | 116 | 0.0 | 1.0 | 0.00 | 0.00 | 0.00 | 1017.6 | |
| 20260903021521 | 0 | 127 | 0.0 | 2.0 | 0.00 | 0.00 | 0.00 | 1017.6 | |
| 20260903021019 | 0 | 126 | 0.0 | 2.0 | 0.00 | 0.00 | 0.00 | 1017.6 | |
| 20260903020520 | 0 | 124 | 0.0 | 2.0 | 0.00 | 0.00 | 0.00 | 1017.6 | |
| 20260903020019 | 0 | 101 | 0.0 | 1.0 | 0.00 | 0.00 | 0.00 | 1017.7 | |
| 20260903015519 | 0 | 124 | 0.0 | 1.0 | 0.00 | 0.00 | 0.00 | 1017.7 | |
| 20260903015019 | 0 | 125 | 0.0 | 1.0 | 0.00 | 0.00 | 0.00 | 1017.6 | |
| 20260903014518 | 0 | 125 | 0.0 | 2.0 | 0.00 | 0.00 | 0.00 | 1017.6 | |
| 20260903014018 | 0 | 121 | 0.0 | 2.0 | 0.00 | 0.00 | 0.00 | 1017.9 | |
| 20260903013519 | 0 | 126 | 1.0 | 2.0 | 0.00 | 0.00 | 0.00 | 1017.9 | |
| 20260903013019 | 0 | 136 | 0.0 | 1.0 | 0.00 | 0.00 | 0.00 | 1017.9 | |
| 20260903012517 | 0 | 127 | 0.0 | 1.0 | 0.00 | 0.00 | 0.00 | 1018.1 | |
| 20260903012020 | 0 | 131 | 0.0 | 1.0 | 0.00 | 0.00 | 0.00 | 1018.0 | |
| 20260903011518 | 0 | 143 | 0.0 | 1.0 | 0.00 | 0.00 | 0.00 | 1017.9 | |
| 20260903011018 | 0 | 109 | 0.0 | 1.0 | 0.00 | 0.00 | 0.00 | 1017.8 | |
| 20260903010517 | 0 | 112 | 0.0 | 1.0 | 0.00 | 0.00 | 0.00 | 1017.8 | |
| 20260903010036 | 0 | 113 | 0.0 | 1.0 | 0.00 | 0.00 | 0.00 | 1017.8 | |
| 20260903005517 | 0 | 83 | 0.0 | 2.0 | 0.00 | 0.00 | 0.00 | 1017.5 | |
| 20260903005017 | 0 | 137 | 1.0 | 3.0 | 0.00 | 0.00 | 0.00 | 1017.6 | |
| 20260903004517 | 0 | 125 | 1.0 | 3.0 | 0.00 | 0.00 | 0.00 | 1017.6 | |
| 20260903004016 | 0 | 126 | 1.0 | 2.0 | 0.00 | 0.00 | 0.00 | 1017.6 | |
| 20260903003517 | 0 | 136 | 0.0 | 2.0 | 0.00 | 0.00 | 0.00 | 1017.7 | |
| 20260903003016 | 0 | 136 | 1.0 | 2.0 | 0.00 | 0.00 | 0.00 | 1017.6 | |
| 20260903002519 | 0 | 132 | 1.0 | 2.0 | 0.00 | 0.00 | 0.00 | 1017.6 | |
| 20260903002016 | 0 | 128 | 1.0 | 3.0 | 0.00 | 0.00 | 0.00 | 1017.7 | |
| 20260903001528 | 0 | 110 | 0.0 | 2.0 | 0.00 | 0.00 | 0.00 | 1017.6 | |
| 20260903001017 | 0 | 132 | 1.0 | 2.0 | 0.00 | 0.00 | 0.00 | 1017.3 | |
| 20260903000518 | 0 | 113 | 0.0 | 2.0 | 0.00 | 0.00 | 0.00 | 1017.2 | |
| 20260903000016 | 0 | 84 | 0.0 | 2.0 | 0.00 | 0.00 | 0.00 | 1017.2 | |
| 20260902235516 | 0 | 111 | 0.0 | 2.0 | 0.00 | 0.00 | 0.00 | 1017.3 | |
| 20260902235018 | 0 | 119 | 0.0 | 2.0 | 0.00 | 0.00 | 0.00 | 1017.2 | |
| 20260902234526 | 0 | 130 | 0.0 | 2.0 | 0.00 | 0.00 | 0.00 | 1016.8 | |
| 20260902234018 | 0 | 113 | 0.0 | 2.0 | 0.00 | 0.00 | 0.00 | 1016.9 | |
| 20260902233515 | 0 | 119 | 0.0 | 2.0 | 0.00 | 0.00 | 0.00 | 1017.0 | |
| 20260902233014 | 0 | 126 | 0.0 | 3.0 | 0.00 | 0.00 | 0.00 | 1016.9 | |
| 20260902232514 | 0 | 156 | 1.0 | 2.0 | 0.00 | 0.00 | 0.00 | 1017.1 | |
| 20260902232015 | 0 | 113 | 1.0 | 2.0 | 0.00 | 0.00 | 0.00 | 1017.3 | |
| 20260902231529 | 0 | 126 | 0.0 | 2.0 | 0.00 | 0.00 | 0.00 | 1017.5 | |
| 20260902231014 | 0 | 90 | 0.0 | 3.0 | 0.00 | 0.00 | 0.00 | 1017.8 | |
| 20260902230514 | 0 | 103 | 0.0 | 3.0 | 0.00 | 0.00 | 0.00 | 1017.4 | |
| 20260902230014 | 0 | 124 | 0.0 | 2.0 | 0.00 | 0.00 | 0.00 | 1017.3 | |
| 20260902225514 | 0 | 360 | 1.0 | 2.0 | 0.00 | 0.00 | 0.00 | 1017.2 | |
| 20260902225017 | 0 | 128 | 1.0 | 3.0 | 0.00 | 0.00 | 0.00 | 1017.1 | |
| 20260902224513 | 0 | 133 | 1.0 | 3.0 | 0.00 | 0.00 | 0.00 | 1017.7 | |
| 20260902224013 | 0 | 128 | 1.0 | 3.0 | 0.00 | 0.00 | 0.00 | 1018.1 | |
| 20260902223512 | 0 | 151 | 1.0 | 3.0 | 0.00 | 0.00 | 0.00 | 1017.9 | |
| 20260902223013 | 0 | 93 | 1.0 | 3.0 | 0.00 | 0.00 | 0.00 | 1017.9 | |
| 20260902222511 | 0 | 142 | 0.0 | 3.0 | 0.00 | 0.00 | 0.00 | 1017.8 | |
| 20260902222012 | 0 | 121 | 1.0 | 3.0 | 0.00 | 0.00 | 0.00 | 1017.6 | |
| 20260902221516 | 0 | 119 | 0.0 | 3.0 | 0.00 | 0.00 | 0.00 | 1017.9 | |
| 20260902221012 | 0 | 183 | 0.0 | 3.0 | 0.00 | 0.00 | 0.00 | 1018.2 | |
| 20260902220614 | 0 | 167 | 0.0 | 5.0 | 0.00 | 0.00 | 0.00 | 1018.1 | |
| 20260902220025 | 0 | 204 | 1.0 | 5.0 | 0.00 | 0.00 | 0.00 | 1017.9 | |
| 20260902215510 | 0 | 115 | 1.0 | 4.0 | 0.00 | 0.00 | 0.00 | 1017.9 | |
| 20260902215014 | 0 | 131 | 1.0 | 4.0 | 0.00 | 0.00 | 0.00 | 1017.9 | |
| 20260902214510 | 0 | 142 | 1.0 | 5.0 | 0.00 | 0.00 | 0.00 | 1017.9 | |
| 20260902214008 | 0 | 131 | 2.0 | 5.0 | 0.00 | 0.00 | 0.00 | 1017.7 | |
| 20260902213511 | 0 | 180 | 2.0 | 5.0 | 0.00 | 0.00 | 0.00 | 1017.7 | |
| 20260902213009 | 0 | 158 | 1.0 | 6.0 | 0.00 | 0.00 | 0.00 | 1017.9 | |
| 20260902212509 | 0 | 117 | 0.0 | 9.0 | 0.00 | 0.00 | 0.00 | 1018.0 | |
| 20260902212013 | 0 | 360 | 3.0 | 10.0 | 0.00 | 0.00 | 0.00 | 1017.8 | |
| 20260902211512 | 0 | 221 | 2.0 | 10.0 | 0.00 | 0.00 | 0.00 | 1017.9 | |
| 20260902211008 | 0 | 324 | 3.0 | 10.0 | 0.00 | 0.00 | 0.00 | 1017.7 | |
| 20260902210508 | 0 | 5 | 4.0 | 11.0 | 0.00 | 0.00 | 0.00 | 1017.9 | |
| 20260902210009 | 0 | 171 | 1.0 | 8.0 | 0.00 | 0.00 | 0.00 | 1017.9 | |
| 20260902205508 | 0 | 340 | 3.0 | 7.0 | 0.00 | 0.00 | 0.00 | 1018.1 | |
| 20260902205011 | 0 | 302 | 2.0 | 6.0 | 0.00 | 0.00 | 0.00 | 1017.8 | |
| 20260902204509 | 0 | 185 | 1.0 | 3.0 | 0.00 | 0.00 | 0.00 | 1017.5 | |
| 20260902204012 | 0 | 164 | 0.0 | 3.0 | 0.00 | 0.00 | 0.00 | 1017.2 | |
| 20260902203506 | 0 | 281 | 1.0 | 4.0 | 0.00 | 0.00 | 0.00 | 1017.3 | |
| 20260902203006 | 0 | 127 | 2.0 | 4.0 | 0.00 | 0.00 | 0.00 | 1017.3 | |
| 20260902202508 | 0 | 355 | 1.0 | 3.0 | 0.00 | 0.00 | 0.00 | 1017.4 | |
| 20260902202003 | 0 | 133 | 1.0 | 3.0 | 0.00 | 0.00 | 0.00 | 1017.4 | |
| 20260902201502 | 0 | 112 | 1.0 | 3.0 | 0.00 | 0.00 | 0.00 | 1017.4 | |
| 20260902201101 | 0 | 98 | 0.0 | 3.0 | 0.00 | 0.00 | 0.00 | 1017.5 | |
| 20260902200601 | 0 | 355 | 0.0 | 3.0 | 0.00 | 0.00 | 0.00 | 1017.5 | |
| 20260902200058 | 0 | 76 | 0.0 | 3.0 | 0.00 | 0.00 | 0.00 | 1017.5 | |
| 20260902195600 | 0 | 40 | 0.0 | 6.0 | 0.00 | 0.00 | 0.00 | 1017.5 | |
| 20260902195055 | 0 | 109 | 0.0 | 6.0 | 0.00 | 0.00 | 0.00 | 1017.4 | |
| 20260902194554 | 0 | 15 | 0.0 | 2.0 | 0.00 | 0.00 | 0.00 | 1017.4 | |
| 20260902194052 | 0 | 111 | 0.0 | 2.0 | 0.00 | 0.00 | 0.00 | 1017.2 | |
| 20260902193550 | 0 | 125 | 1.0 | 3.0 | 0.00 | 0.00 | 0.00 | 1017.2 | |
| 20260902193049 | 0 | 112 | 0.0 | 3.0 | 0.00 | 0.00 | 0.00 | 1017.3 | |
| 20260902192547 | 0 | 13 | 0.0 | 3.0 | 0.00 | 0.00 | 0.00 | 1017.3 | |
| 20260902192051 | 0 | 327 | 1.0 | 3.0 | 0.00 | 0.00 | 0.00 | 1017.3 | |
| 20260902191549 | 0 | 111 | 1.0 | 3.0 | 0.00 | 0.00 | 0.00 | 1017.3 | |
| 20260902191043 | 0 | 159 | 1.0 | 3.0 | 0.00 | 0.00 | 0.00 | 1017.4 | |
| 20260902190541 | 0 | 115 | 1.0 | 3.0 | 0.00 | 0.00 | 0.00 | 1017.5 | |
| 20260902190040 | 0 | 103 | 1.0 | 3.0 | 0.00 | 0.00 | 0.00 | 1017.7 | |
| 20260902185540 | 0 | 104 | 1.0 | 2.0 | 0.00 | 0.00 | 0.00 | 1017.7 | |
| 20260902185043 | 0 | 155 | 0.0 | 3.0 | 0.00 | 0.00 | 0.00 | 1017.8 | |
| 20260902184539 | 0 | 142 | 0.0 | 4.0 | 0.00 | 0.00 | 0.00 | 1017.7 | |
| 20260902184039 | 0 | 138 | 1.0 | 4.0 | 0.00 | 0.00 | 0.00 | 1017.9 | |
| 20260902183538 | 0 | 100 | 0.0 | 2.0 | 0.00 | 0.00 | 0.00 | 1017.8 | |
| 20260902183037 | 0 | 323 | 1.0 | 3.0 | 0.00 | 0.00 | 0.00 | 1017.9 | |
| 20260902182534 | 0 | 119 | 1.0 | 3.0 | 0.00 | 0.00 | 0.00 | 1017.9 | |
| 20260902182034 | 0 | 108 | 0.0 | 4.0 | 0.00 | 0.00 | 0.00 | 1018.0 | |
| 20260902181532 | 0 | 117 | 1.0 | 4.0 | 0.00 | 0.00 | 0.00 | 1018.1 | |
| 20260902181034 | 0 | 36 | 1.0 | 4.0 | 0.00 | 0.00 | 0.00 | 1018.0 | |
| 20260902180528 | 0 | 134 | 0.0 | 3.0 | 0.00 | 0.00 | 0.00 | 1018.0 | |
| 20260902180028 | 0 | 125 | 1.0 | 3.0 | 0.00 | 0.00 | 0.00 | 1018.1 | |
| 20260902175526 | 0 | 343 | 1.0 | 3.0 | 0.00 | 0.00 | 0.00 | 1018.0 | |
| 20260902175025 | 0 | 79 | 0.0 | 3.0 | 0.00 | 0.00 | 0.00 | 1018.0 | |
| 20260902174526 | 0 | 153 | 0.0 | 3.0 | 0.00 | 0.00 | 0.00 | 1017.9 | |
| 20260902174023 | 0 | 57 | 0.0 | 4.0 | 0.00 | 0.00 | 0.00 | 1017.9 | |
| 20260902173520 | 0 | 88 | 1.0 | 4.0 | 0.00 | 0.00 | 0.00 | 1017.9 | |
| 20260902173030 | 0 | 5 | 0.0 | 3.0 | 0.00 | 0.00 | 0.00 | 1017.9 | |
| 20260902172519 | 0 | 5 | 1.0 | 3.0 | 0.00 | 0.00 | 0.00 | 1017.9 | |
| 20260902172016 | 0 | 72 | 1.0 | 3.0 | 0.00 | 0.00 | 0.00 | 1017.8 | |
| 20260902171514 | 0 | 126 | 1.0 | 3.0 | 0.00 | 0.00 | 0.00 | 1017.9 | |
| 20260902171012 | 0 | 335 | 0.0 | 6.0 | 0.00 | 0.00 | 0.00 | 1017.8 | |
| 20260902170513 | 0 | 22 | 1.0 | 6.0 | 0.00 | 0.00 | 0.00 | 1017.9 | |
| 20260902170011 | 0 | 19 | 1.0 | 4.0 | 0.00 | 0.00 | 0.00 | 1017.9 | |
| 20260902165509 | 0 | 19 | 1.0 | 5.0 | 0.00 | 0.00 | 0.00 | 1017.8 | |
| 20260902165007 | 0 | 98 | 0.0 | 3.0 | 0.00 | 0.00 | 0.00 | 1017.8 | |
| 20260902164506 | 0 | 173 | 1.0 | 3.0 | 0.00 | 0.00 | 0.00 | 1017.9 | |
| 20260902164105 | 0 | 139 | 0.0 | 5.0 | 0.00 | 0.00 | 0.00 | 1017.9 | |
| 20260902163502 | 0 | 166 | 1.0 | 5.0 | 0.00 | 0.00 | 0.00 | 1018.1 | |
| 20260902163001 | 0 | 180 | 1.0 | 3.0 | 0.00 | 0.00 | 0.00 | 1018.1 | |
| 20260902162602 | 0 | 301 | 1.0 | 3.0 | 0.00 | 0.00 | 0.00 | 1018.2 | |
| 20260902162057 | 0 | 113 | 1.0 | 3.0 | 0.00 | 0.00 | 0.00 | 1018.3 | |
| 20260902161603 | 0 | 79 | 0.0 | 4.0 | 0.00 | 0.00 | 0.00 | 1018.4 | |
| 20260902161055 | 0 | 346 | 2.0 | 4.0 | 0.00 | 0.00 | 0.00 | 1018.4 | |
| 20260902160554 | 0 | 89 | 0.0 | 3.0 | 0.00 | 0.00 | 0.00 | 1018.4 | |
| 20260902160055 | 0 | 107 | 1.0 | 3.0 | 0.00 | 0.00 | 0.00 | 1018.5 | |
| 20260902155551 | 0 | 138 | 0.0 | 3.0 | 0.00 | 0.00 | 0.00 | 1018.5 | |
| 20260902155049 | 0 | 102 | 0.0 | 4.0 | 0.00 | 0.00 | 0.00 | 1018.4 | |
| 20260902154548 | 0 | 96 | 1.0 | 4.0 | 0.00 | 0.00 | 0.00 | 1018.6 | |
| 20260902154046 | 0 | 5 | 0.0 | 2.0 | 0.00 | 0.00 | 0.00 | 1018.5 | |
| 20260902153545 | 0 | 107 | 0.0 | 2.0 | 0.00 | 0.00 | 0.00 | 1018.4 | |
| 20260902153043 | 0 | 148 | 0.0 | 2.0 | 0.00 | 0.00 | 0.00 | 1018.4 | |
| 20260902152541 | 0 | 107 | 0.0 | 6.0 | 0.00 | 0.00 | 0.00 | 1018.5 | |
| 20260902152040 | 0 | 169 | 1.0 | 6.0 | 0.00 | 0.00 | 0.00 | 1018.7 | |
| 20260902151539 | 0 | 112 | 1.0 | 3.0 | 0.00 | 0.00 | 0.00 | 1018.6 | |
| 20260902151037 | 0 | 116 | 0.0 | 2.0 | 0.00 | 0.00 | 0.00 | 1018.7 | |
| 20260902150536 | 0 | 101 | 0.0 | 2.0 | 0.00 | 0.00 | 0.00 | 1018.7 | |
| 20260902150037 | 0 | 101 | 0.0 | 2.0 | 0.00 | 0.00 | 0.00 | 1018.7 | |
| 20260902145532 | 0 | 101 | 0.0 | 3.0 | 0.00 | 0.00 | 0.00 | 1018.7 | |
| 20260902145033 | 0 | 88 | 1.0 | 3.0 | 0.00 | 0.00 | 0.00 | 1018.7 | |
| 20260902144532 | 0 | 167 | 0.0 | 4.0 | 0.00 | 0.00 | 0.00 | 1018.7 | |
| 20260902144028 | 0 | 9 | 1.0 | 4.0 | 0.00 | 0.00 | 0.00 | 1018.6 | |
| 20260902143527 | 0 | 132 | 0.0 | 3.0 | 0.00 | 0.00 | 0.00 | 1018.6 | |
| 20260902143026 | 0 | 161 | 0.0 | 2.0 | 0.00 | 0.00 | 0.00 | 1018.6 | |
| 20260902142524 | 0 | 189 | 0.0 | 4.0 | 0.00 | 0.00 | 0.00 | 1018.6 | |
| 20260902142022 | 0 | 117 | 1.0 | 4.0 | 0.00 | 0.00 | 0.00 | 1018.6 | |
| 20260902141526 | 0 | 146 | 1.0 | 3.0 | 0.00 | 0.00 | 0.00 | 1018.6 | |
| 20260902141022 | 0 | 104 | 0.0 | 3.0 | 0.00 | 0.00 | 0.00 | 1018.6 | |
| 20260902140518 | 0 | 115 | 0.0 | 2.0 | 0.00 | 0.00 | 0.00 | 1018.6 | |
| 20260902140027 | 0 | 118 | 0.0 | 3.0 | 0.00 | 0.00 | 0.00 | 1018.5 | |
| 20260902135518 | 0 | 119 | 1.0 | 3.0 | 0.00 | 0.00 | 0.00 | 1018.5 | |
| 20260902135014 | 0 | 39 | 0.0 | 3.0 | 0.00 | 0.00 | 0.00 | 1018.5 | |
| 20260902134512 | 0 | 111 | 0.0 | 1.0 | 0.00 | 0.00 | 0.00 | 1018.5 | |
| 20260902134010 | 0 | 105 | 0.0 | 1.0 | 0.00 | 0.00 | 0.00 | 1018.4 | |
| 20260902133508 | 0 | 105 | 0.0 | 1.0 | 0.00 | 0.00 | 0.00 | 1018.4 | |
| 20260902133007 | 0 | 101 | 0.0 | 2.0 | 0.00 | 0.00 | 0.00 | 1018.3 | |
| 20260902132507 | 0 | 38 | 0.0 | 2.0 | 0.00 | 0.00 | 0.00 | 1018.2 | |
| 20260902132003 | 0 | 17 | 0.0 | 3.0 | 0.00 | 0.00 | 0.00 | 1018.4 | |
| 20260902131502 | 0 | 26 | 0.0 | 3.0 | 0.00 | 0.00 | 0.00 | 1018.3 | |
| 20260902131001 | 0 | 64 | 0.0 | 2.0 | 0.00 | 0.00 | 0.00 | 1018.2 | |
| 20260902130600 | 0 | 69 | 0.0 | 2.0 | 0.00 | 0.00 | 0.00 | 1018.2 | |
| 20260902130059 | 0 | 28 | 0.0 | 2.0 | 0.00 | 0.00 | 0.00 | 1018.3 | |
| 20260902125557 | 0 | 112 | 0.0 | 2.0 | 0.00 | 0.00 | 0.00 | 1018.3 | |
| 20260902125056 | 0 | 112 | 0.0 | 0.0 | 0.00 | 0.00 | 0.00 | 1018.3 | |
| 20260902124557 | 0 | 112 | 0.0 | 2.0 | 0.00 | 0.00 | 0.00 | 1018.3 | |
| 20260902124055 | 0 | 112 | 0.0 | 1.0 | 0.00 | 0.00 | 0.00 | 1018.3 | |
| 20260902123552 | 0 | 112 | 0.0 | 1.0 | 0.00 | 0.00 | 0.00 | 1018.3 | |
| 20260902123054 | 0 | 118 | 0.0 | 1.0 | 0.00 | 0.00 | 0.00 | 1018.3 | |
| 20260902122552 | 0 | 123 | 0.0 | 1.0 | 0.00 | 0.00 | 0.00 | 1018.3 | |
| 20260902122046 | 0 | 126 | 0.0 | 1.0 | 0.00 | 0.00 | 0.00 | 1018.3 | |
| 20260902121549 | 0 | 126 | 0.0 | 1.0 | 0.00 | 0.00 | 0.00 | 1018.3 | |
| 20260902121043 | 0 | 126 | 0.0 | 1.0 | 0.00 | 0.00 | 0.00 | 1018.2 | |
| 20260902120545 | 0 | 117 | 0.0 | 1.0 | 0.00 | 0.00 | 0.00 | 1018.2 | |
| 20260902120041 | 0 | 110 | 0.0 | 0.0 | 0.00 | 0.00 | 0.00 | 1018.3 | |
| 20260902115543 | 0 | 110 | 0.0 | 0.0 | 0.00 | 0.00 | 0.00 | 1018.2 | |
| 20260902115038 | 0 | 110 | 0.0 | 0.0 | 0.00 | 0.00 | 0.00 | 1018.2 | |
| 20260902114603 | 0 | 110 | 0.0 | 1.0 | 0.00 | 0.00 | 0.00 | 1018.1 | |
| 20260902114036 | 0 | 110 | 0.0 | 1.0 | 0.00 | 0.00 | 0.00 | 1018.1 | |
| 20260902113533 | 0 | 113 | 0.0 | 1.0 | 0.00 | 0.00 | 0.00 | 1018.1 | |
| 20260902113041 | 0 | 122 | 0.0 | 1.0 | 0.00 | 0.00 | 0.00 | 1018.2 | |
| 20260902112530 | 0 | 127 | 0.0 | 1.0 | 0.00 | 0.00 | 0.00 | 1018.1 | |
| 20260902112029 | 0 | 136 | 0.0 | 1.0 | 0.00 | 0.00 | 0.00 | 1018.1 | |
| 20260902111527 | 0 | 122 | 0.0 | 1.0 | 0.00 | 0.00 | 0.00 | 1018.1 | |
| 20260902111026 | 0 | 128 | 0.0 | 0.0 | 0.00 | 0.00 | 0.00 | 1018.0 | |
| 20260902110525 | 0 | 128 | 0.0 | 0.0 | 0.00 | 0.00 | 0.00 | 1018.1 | |
| 20260902110036 | 0 | 128 | 0.0 | 0.0 | 0.00 | 0.00 | 0.00 | 1018.2 | |
| 20260902105525 | 0 | 128 | 0.0 | 0.0 | 0.00 | 0.00 | 0.00 | 1018.2 | |
| 20260902105020 | 0 | 128 | 0.0 | 1.0 | 0.00 | 0.00 | 0.00 | 1018.0 | |
| 20260902104532 | 0 | 128 | 0.0 | 1.0 | 0.00 | 0.00 | 0.00 | 1017.9 | |
| 20260902104018 | 0 | 128 | 0.0 | 1.0 | 0.00 | 0.00 | 0.00 | 1017.9 | |
| 20260902103516 | 0 | 134 | 0.0 | 1.0 | 0.00 | 0.00 | 0.00 | 1017.8 | |
| 20260902103021 | 0 | 140 | 0.0 | 1.0 | 0.00 | 0.00 | 0.00 | 1017.8 | |
| 20260902102516 | 0 | 140 | 0.0 | 2.0 | 0.00 | 0.00 | 0.00 | 1017.8 | |
| 20260902102011 | 0 | 118 | 0.0 | 2.0 | 0.00 | 0.00 | 0.00 | 1017.7 | |
| 20260902101509 | 0 | 114 | 0.0 | 1.0 | 0.00 | 0.00 | 0.00 | 1017.6 | |
| 20260902101008 | 0 | 103 | 0.0 | 1.0 | 0.00 | 0.00 | 0.00 | 1017.6 | |
| 20260902100507 | 0 | 101 | 0.0 | 0.0 | 0.00 | 0.00 | 0.00 | 1017.5 | |
| 20260902100008 | 0 | 101 | 0.0 | 0.0 | 0.00 | 0.00 | 0.00 | 1017.4 | |
| 20260902095505 | 0 | 101 | 0.0 | 0.0 | 0.00 | 0.00 | 0.00 | 1017.6 | |
| 20260902095003 | 0 | 101 | 0.0 | 1.0 | 0.00 | 0.00 | 0.00 | 1017.4 | |
| 20260902094501 | 0 | 101 | 0.0 | 1.0 | 0.00 | 0.00 | 0.00 | 1017.2 | |
| 20260902094100 | 0 | 101 | 0.0 | 1.0 | 0.00 | 0.00 | 0.00 | 1017.3 |